#timestamp,LO_Frequency,Hit,StdDev 
1525384815.2,286046998.7,P
1525384835.9,286046999.6,P
1525384855.7,286046998.7,P
1525384875.6,286046999.2,N
1525384895.4,286046998.3,Y
1525384915.2,286046998.5,P
1525384935.1,286047001.1,P
1525384936.0,286047001.1,N
1525384955.8,286047002.3,N
1525384975.7,286047000.0,N
1525384995.5,286047002.1,N
1525385015.3,286047001.9,N
1525385035.2,286047001.9,N
1525385055.0,286047002.5,N
1525385055.9,286047002.5,N
1525385075.8,286047001.9,N
1525385095.6,286047001.4,N
1525385115.4,286047002.0,N
1525385135.3,286046999.8,N
1525385155.1,286047002.8,N
1525385175.8,286046999.9,N
1525385195.7,286047000.4,N
1525385215.5,286046999.9,N
1525385235.3,286047000.6,N
1525385255.2,286046999.9,N
1525385275.0,286047002.2,N
1525385275.9,286047002.2,N
1525385295.8,286047002.0,N
1525385315.6,286047001.9,N
1525385335.4,286047001.6,N
1525385355.3,286047002.1,N
1525385375.1,286047001.9,N
1525385395.9,286047003.9,Y
1525385415.7,286047002.1,P
1525385435.5,286047002.8,P
1525385455.4,286047004.4,P
1525385475.2,286046999.7,N
1525385495.0,286047002.4,N
1525385496.0,286047002.4,N
1525385515.8,286047001.5,N
1525385535.6,286047002.0,N
1525385555.5,286047002.6,N
1525385575.3,286046999.7,N
1525385595.1,286046999.7,N
1525385615.9,286047000.1,N
1525385635.7,286046999.7,N
1525385655.6,286047001.7,N
1525385675.4,286047001.9,N
1525385695.2,286047001.9,N
1525385715.1,286047002.4,N
1525385716.0,286047002.4,N
1525385735.8,286047002.7,N
1525385755.7,286047002.6,N
1525385775.5,286047002.0,N
1525385795.3,286047001.9,N
1525385815.2,286046999.7,N
1525385835.0,286046999.7,N
1525385835.9,286046999.7,N
1525385855.7,286047002.2,N
1525385875.6,286047001.7,N
1525385895.4,286047004.4,Y
1525385915.3,286047000.4,P
1525385935.1,286047000.8,N
1525385936.0,286047000.8,N
1525385955.8,286047000.7,N
1525385975.7,286047000.2,N
1525385995.5,286047000.0,N
1525386015.4,286047000.5,N
1525386035.2,286046998.5,Y
1525386055.0,286046998.5,P
1525386055.9,286046998.5,N
1525386075.8,286047000.9,N
1525386095.6,286047001.0,N
1525386115.4,286047000.2,N
1525386135.3,286047002.8,N
1525386155.1,286047002.2,N
1525386175.9,286047000.0,N
1525386195.7,286047002.8,N
1525386215.5,286047004.4,N
1525386235.4,286047000.0,N
1525386255.2,286046999.7,N
1525386275.0,286047002.8,N
1525386275.9,286047002.8,N
1525386295.8,286047000.3,N
1525386315.6,286046998.4,N
1525386335.5,286047000.5,N
1525386355.3,286047001.0,N
1525386375.1,286046998.7,N
1525386395.9,286047001.2,N
1525386415.7,286047000.1,N
1525386435.5,286046998.3,N
1525386455.4,286046998.2,N
1525386475.2,286046998.6,N
1525386495.1,286047000.2,N
1525386496.0,286047000.2,N
1525386515.8,286046998.2,N
1525386535.6,286047001.0,N
1525386555.5,286047002.3,N
1525386575.3,286046998.5,N
1525386595.1,286046998.6,N
1525386615.9,286046998.2,N
1525386635.7,286046998.7,N
1525386655.6,286047000.8,N
1525386675.4,286047001.2,N
1525386695.2,286047000.7,N
1525386715.1,286047000.7,N
1525386716.0,286047000.7,N
1525386735.8,286046999.9,N
1525386755.7,286047002.8,N
1525386775.5,286047000.9,N
1525386795.3,286047002.7,N
1525386815.2,286047000.6,N
1525386835.0,286047000.9,N
1525386835.9,286047000.9,N
1525386855.8,286047000.3,N
1525386875.6,286047002.7,N
1525386895.4,286047002.0,N
1525386915.3,286047002.2,N
1525386935.1,286047004.4,Y
1525386955.9,286046999.8,P
1525386975.7,286047002.4,P
1525386995.5,286047002.3,N
1525387015.4,286046999.9,N
1525387035.2,286047002.8,N
1525387055.0,286047002.2,N
1525387056.0,286047002.2,N
1525387075.8,286046999.7,N
1525387095.6,286047001.0,N
1525387115.5,286047000.3,N
1525387135.3,286047001.0,N
1525387155.1,286047000.2,N
1525387175.9,286047000.6,N
1525387195.7,286047000.4,N
1525387215.6,286047000.8,N
1525387235.4,286047000.9,N
1525387255.2,286046998.2,N
1525387275.1,286046998.1,N
1525387276.0,286046998.1,N
1525387295.8,286047001.1,N
1525387315.6,286047000.3,N
1525387335.5,286047000.3,N
1525387355.3,286047001.2,N
1525387375.2,286047000.3,N
1525387395.9,286047000.3,N
1525387415.7,286047000.3,N
1525387435.6,286046999.7,N
1525387455.4,286047001.5,N
1525387475.2,286047002.8,N
1525387495.1,286047001.7,N
1525387496.0,286047001.7,N
1525387515.8,286047002.5,N
1525387535.7,286047000.4,N
1525387555.5,286047000.6,N
1525387575.3,286047000.7,N
1525387595.2,286047000.8,N
1525387615.0,286047001.0,N
1525387615.9,286047001.0,N
1525387635.8,286047000.6,N
1525387655.6,286047002.5,N
1525387675.4,286047005.5,Y
1525387695.3,286047004.3,P
1525387715.1,286047001.8,N
1525387735.9,286047001.4,N
1525387755.7,286047004.3,Y
1525387775.5,286047000.1,P
1525387795.4,286047002.4,N
1525387815.2,286047002.5,N
1525387835.0,286047002.2,N
1525387836.0,286047002.2,N
1525387855.8,286047001.9,N
1525387875.6,286046999.8,N
1525387895.5,286047000.7,N
1525387915.3,286046999.9,N
1525387935.1,286047002.5,N
1525387955.9,286047004.3,Y
1525387975.7,286047000.0,P
1525387995.6,286047000.8,N
1525388015.4,286047002.5,P
1525388035.2,286046999.7,N
1525388055.1,286047000.3,N
1525388056.0,286047000.3,N
1525388075.8,286047001.0,N
1525388095.6,286046998.1,N
1525388115.5,286047001.1,N
1525388135.3,286046999.2,N
1525388155.2,286046997.0,N
1525388175.9,286046996.2,N
1525388195.7,286046995.6,N
1525388215.6,286046995.4,N
1525388235.4,286046995.4,N
1525388255.2,286046995.0,N
1525388275.1,286046995.9,N
1525388276.0,286046995.9,N
1525388295.8,286046997.7,N
1525388315.7,286046995.2,N
1525388335.5,286046995.9,N
1525388355.3,286046996.2,N
1525388375.2,286046993.7,N
1525388395.0,286046993.4,N
1525388395.9,286046993.4,N
